Tracking 30918 objects as of 2-Jul-2025
HD Live streaming from Space Station
objects crossing your sky now

GEESAT 3-09

Track GEESAT 3-09 now!
10-day predictions


NORAD ID: 61019
Int'l Code: 2024-159J
Perigee: 593.1 km
Apogee: 596.3 km
Inclination: 50.0 °
Period: 96.4 minutes
Semi major axis: 6965 km
RCS: Unknown
Launch date: September 5, 2024
Source: People's Republic of China (PRC)
Launch site: Taiyaun Space Center, China (TSC)
Your satellite tracking list
Your tracking list is empty




NASA's NSSDC Master Catalog

Two Line Element Set (TLE):
1 61019U 24159J   25183.11782001  .00002580  00000-0  26659-3 0  9993
2 61019  49.9971 271.8767 0002311 313.4045  46.6705 14.93326247 44707
Source of the keplerian elements: AFSPC